Date String (YYYY-MM-DD hh:mm:ss) UTC,Instrument flags,Ambient pressure (hPa),Sample flow (lpm),Bypass flow (lpm),Sample temperature (°C),Ambient temperature (°C),ASC tube jacket temperature (°C),LED temperature (°C),Box temperature (°C),Sample RH (%),Span deviation,Mass concentration (μg/m³),Mass concentration (μg/m³),Mass concentration (μg/m³)
DateTimeUTC,F1_M11,P_M11,Q1_M11,Q2_M11,T1_M11,T2_M11,T3_M11,T4_M11,T5_M11,U1_M11,ZSPAN_M11,X0_M11,X2_M11,X1_M11
2022-01-30 03:00:00,,0827.7,4.99,0.00,26.1,25.3,00.0,35.3,27.8,06.0,0000.0,0011.20,0006.14,0005.86
2022-01-30 03:01:00,,0827.7,5.00,0.00,26.1,25.2,00.0,35.3,27.8,06.1,0000.0,0012.17,0006.66,0006.33
2022-01-30 03:02:00,,0827.7,4.98,0.00,26.1,25.3,00.0,35.3,27.9,06.0,0000.0,0012.63,0007.08,0006.73
2022-01-30 03:03:00,,0827.7,5.00,0.00,26.1,25.3,00.0,35.3,27.9,06.0,0000.0,0012.54,0007.35,0007.01
2022-01-30 03:04:00,,0827.7,5.01,0.00,26.1,25.3,00.0,35.2,27.8,06.0,0000.0,0012.05,0007.65,0007.28
2022-01-30 03:05:00,,0827.7,5.01,0.00,26.1,25.3,00.0,35.2,27.9,06.1,0000.0,0012.39,0007.85,0007.48
2022-01-30 03:06:00,,0827.7,5.00,0.00,26.1,25.3,00.0,35.2,27.8,05.8,0000.0,0011.72,0007.85,0007.48
2022-01-30 03:07:00,,0827.7,4.99,0.00,26.1,25.3,00.0,35.2,27.8,05.7,0000.0,0011.54,0007.73,0007.36
2022-01-30 03:08:00,,0827.7,4.99,0.00,26.1,25.3,00.0,35.2,27.8,05.8,0000.0,0011.37,0007.75,0007.37
2022-01-30 03:09:00,,0827.6,4.99,0.00,26.0,25.2,00.0,35.2,27.8,05.9,0000.0,0011.49,0007.81,0007.42
2022-01-30 03:10:00,,0827.7,5.01,0.00,26.0,25.2,00.0,35.1,27.7,05.8,0000.0,0011.80,0007.72,0007.34
2022-01-30 03:11:00,,0827.7,4.99,0.00,26.0,25.2,00.0,35.1,27.7,05.8,0000.0,0011.63,0007.55,0007.19
2022-01-30 03:12:00,,0827.7,4.99,0.00,26.0,25.2,00.0,35.1,27.7,05.8,0000.0,0011.04,0007.35,0007.00
2022-01-30 03:13:00,,0827.7,5.00,0.00,26.0,25.2,00.0,35.1,27.7,05.7,0000.0,0010.84,0007.16,0006.80
2022-01-30 03:14:00,,0827.7,4.99,0.00,26.0,25.2,00.0,35.1,27.7,05.7,0000.0,0010.65,0006.99,0006.63
2022-01-30 03:15:00,,0827.7,5.00,0.00,26.0,25.2,00.0,35.1,27.7,05.7,0000.0,0010.41,0006.84,0006.51
2022-01-30 03:16:00,,0827.7,5.02,0.00,25.9,25.1,00.0,35.1,27.6,05.7,0000.0,0010.51,0006.68,0006.36
2022-01-30 03:17:00,,0827.7,4.99,0.00,25.9,25.1,00.0,35.0,27.6,05.7,0000.0,0010.55,0006.70,0006.37
2022-01-30 03:18:00,,0827.7,5.00,0.00,25.9,25.1,00.0,35.0,27.6,05.7,0000.0,0010.69,0006.83,0006.50
2022-01-30 03:19:00,,0827.7,5.00,0.00,25.9,25.1,00.0,35.0,27.6,05.7,0000.0,0010.76,0006.83,0006.48
2022-01-30 03:20:00,,0827.7,5.01,0.00,25.9,25.1,00.0,35.0,27.7,05.8,0000.0,0010.89,0006.84,0006.50
2022-01-30 03:21:00,,0827.8,5.00,0.00,25.9,25.1,00.0,35.0,27.7,05.8,0000.0,0010.48,0006.91,0006.59
2022-01-30 03:22:00,,0827.7,5.00,0.00,25.9,25.2,00.0,35.0,27.7,05.9,0000.0,0011.16,0007.05,0006.72
2022-01-30 03:23:00,,0827.7,4.98,0.00,25.9,25.2,00.0,35.0,27.7,05.9,0000.0,0012.36,0007.17,0006.86
2022-01-30 03:24:00,,0827.7,5.00,0.00,26.0,25.2,00.0,35.0,27.7,05.9,0000.0,0012.48,0007.29,0007.01
2022-01-30 03:25:00,,0827.7,5.00,0.00,25.9,25.2,00.0,35.0,27.7,05.8,0000.0,0013.08,0007.43,0007.13
2022-01-30 03:26:00,,0827.7,4.99,0.00,25.9,25.2,00.0,35.0,27.7,05.6,0000.0,0013.18,0007.39,0007.07
2022-01-30 03:27:00,,0827.7,5.00,0.00,25.9,25.2,00.0,34.9,27.7,05.6,0000.0,0012.66,0007.34,0007.03
2022-01-30 03:28:00,,0827.7,4.99,0.00,25.9,25.2,00.0,34.9,27.7,05.7,0000.0,0012.65,0007.35,0007.04
2022-01-30 03:29:00,,0827.7,5.01,0.00,25.9,25.2,00.0,34.9,27.7,06.0,0000.0,0012.88,0007.48,0007.16
2022-01-30 03:30:00,,0827.7,5.00,0.00,25.9,25.2,00.0,34.9,27.7,05.9,0000.0,0013.12,0007.62,0007.32
2022-01-30 03:31:00,,0827.7,5.00,0.00,25.9,25.1,00.0,34.9,27.6,06.1,0000.0,0013.09,0007.77,0007.46
2022-01-30 03:32:00,,0827.7,4.99,0.00,25.9,25.1,00.0,34.9,27.6,06.2,0000.0,0013.28,0007.95,0007.63
2022-01-30 03:33:00,,0827.7,5.00,0.00,25.8,25.1,00.0,34.9,27.6,06.3,0000.0,0013.00,0008.12,0007.77
2022-01-30 03:34:00,,0827.6,5.01,0.00,25.8,25.1,00.0,34.9,27.6,06.5,0000.0,0012.07,0008.29,0007.89
2022-01-30 03:35:00,,0827.7,5.01,0.00,25.8,25.0,00.0,34.9,27.6,06.6,0000.0,0012.22,0008.47,0008.04
2022-01-30 03:36:00,,0827.7,5.01,0.00,25.8,25.0,00.0,34.9,27.6,06.6,0000.0,0012.25,0008.68,0008.23
2022-01-30 03:37:00,,0827.7,5.00,0.00,25.8,25.0,00.0,34.8,27.6,06.8,0000.0,0012.59,0009.07,0008.58
2022-01-30 03:38:00,,0827.7,4.99,0.00,25.8,25.0,00.0,34.8,27.6,06.5,0000.0,0013.10,0009.46,0008.91
2022-01-30 03:39:00,,0827.7,5.00,0.00,25.8,25.0,00.0,34.8,27.5,06.4,0000.0,0013.37,0009.70,0009.14
2022-01-30 03:40:00,,0827.7,5.00,0.00,25.8,25.0,00.0,34.8,27.5,06.4,0000.0,0013.42,0009.83,0009.28
2022-01-30 03:41:00,,0827.7,5.01,0.00,25.8,25.0,00.0,34.8,27.6,06.6,0000.0,0013.44,0009.96,0009.40
2022-01-30 03:42:00,,0827.7,5.00,0.00,25.8,25.0,00.0,34.8,27.6,06.6,0000.0,0013.48,0009.98,0009.43
2022-01-30 03:43:00,,0827.7,4.98,0.00,25.8,25.0,00.0,34.8,27.6,06.4,0000.0,0013.99,0009.97,0009.43
2022-01-30 03:44:00,,0827.7,4.99,0.00,25.8,25.0,00.0,34.8,27.6,06.4,0000.0,0014.16,0009.94,0009.41
2022-01-30 03:45:00,,0827.7,5.00,0.00,25.8,25.0,00.0,34.8,27.6,06.3,0000.0,0014.99,0009.91,0009.39
2022-01-30 03:46:00,,0827.7,5.00,0.00,25.8,25.0,00.0,34.8,27.6,06.3,0000.0,0015.52,0009.89,0009.35
2022-01-30 03:47:00,,0827.6,5.00,0.00,25.8,25.0,00.0,34.8,27.6,06.2,0000.0,0015.31,0009.84,0009.33
2022-01-30 03:48:00,,0827.7,5.00,0.00,25.8,25.0,00.0,34.8,27.6,06.4,0000.0,0015.05,0009.73,0009.27
2022-01-30 03:49:00,,0827.7,5.00,0.00,25.8,25.0,00.0,34.8,27.6,06.4,0000.0,0015.06,0009.68,0009.24
2022-01-30 03:50:00,,0827.7,5.01,0.00,25.8,25.0,00.0,34.7,27.6,06.4,0000.0,0015.15,0009.65,0009.25
2022-01-30 03:51:00,,0827.7,5.00,0.00,25.8,25.0,00.0,34.7,27.6,06.3,0000.0,0015.19,0009.65,0009.25
2022-01-30 03:52:00,,0827.7,4.99,0.00,25.8,25.0,00.0,34.7,27.6,06.4,0000.0,0015.24,0009.68,0009.28
2022-01-30 03:53:00,,0827.7,5.00,0.00,25.8,25.0,00.0,34.7,27.6,06.4,0001.1,0015.50,0009.74,0009.33
2022-01-30 03:54:00,,0827.7,5.00,0.00,25.8,25.0,00.0,34.7,27.6,06.4,0000.6,0015.46,0009.81,0009.38
2022-01-30 03:55:00,,0827.6,5.01,0.00,25.8,25.0,00.0,34.7,27.6,06.3,0000.9,0014.99,0009.88,0009.44
2022-01-30 03:56:00,,0827.7,5.01,0.00,25.8,25.0,00.0,34.7,27.6,06.2,0000.0,0014.38,0009.89,0009.46
2022-01-30 03:57:00,,0827.6,5.01,0.00,25.8,25.0,00.0,34.7,27.6,06.3,0000.0,0013.86,0009.89,0009.48
2022-01-30 03:58:00,,0827.7,5.00,0.00,25.8,25.0,00.0,34.7,27.6,06.4,0000.0,0013.90,0009.92,0009.50
2022-01-30 03:59:00,,0827.6,4.99,0.00,25.7,25.0,00.0,34.7,27.5,06.4,0000.0,0014.03,0009.95,0009.51
